User: anonymous   Login
Location: Peebles
(55.6412°N, 3.1714°W)
Time: 21:43:00
(UTC+01:00)
Language:

N. Korean satellite - Orbit

View from above orbital plane
View from above orbital plane
View from above satellite
View from above satellite

Ground track
Ground track

The orbit data is extracted from the following two-line orbital elements,

1 39026U 12072A   22267.55079562  .00018164  00000-0  45967-3 0  9994
2 39026  97.2745 257.3539 0029563 157.5859 202.6686 15.39350799544155
Epoch (UTC): 24 September 2022 13:13:08
Eccentricity: 0.0029563
inclination: 97.2745°
perigee height: 428 km
apogee height: 468 km
right ascension of ascending node: 257.3539°
argument of perigee: 157.5859°
revolutions per day: 15.39350799
mean anomaly at epoch: 202.6686°
orbit number at epoch: 54415

The dashed part of the orbit path shows where the satellite is in the earth's shadow,  

DLR